Location: Bovenkerk
(52.2915°N, 4.8336°E)
Time: 10:52:26
(UTC+00:00)

Cosmos 1954 Rocket - Pass Details

Date: 09 April 2020
Orbit: 752 x 781 km, 74.1° (Epoch: 25 May)

Event Time Altitude Azimuth Distance (km) Brightness Sun altitude
Rises 19:29:09 0° 181° (S) 3,226 7.0 -9.4°
Reaches altitude 10° 19:31:37 10° 175° (S) 2,299 6.2 -9.7°
Maximum altitude 19:36:30 42° 105° (ESE) 1,076 4.3 -10.4°
Drops below altitude 10° 19:41:24 10° 36° (NE) 2,299 6.4 -11.0°
Sets 19:43:51 0° 30° (NNE) 3,225 7.2 -11.4°
